User: anonymous
Location: Caltech
(34.1382°N, 118.1253°W)
Time: 02:58:40
(UTC-07:00)
Language:

Spot 4 Rocket - Orbit

View from above orbital plane
View from above orbital plane
View from above satellite
View from above satellite

Ground track
Ground track

The orbit data is extracted from the following two-line orbital elements,

1 25261U 98017B   14261.88470288  .00000348  00000-0  14290-3 0  6744
2 25261 098.4178 213.0732 0003661 162.2378 260.1779 14.32988823861430
Epoch (UTC): 18 September 2014 21:13:58
Eccentricity: 0.0003661
inclination: 98.4178°
perigee height: 779 km
apogee height: 784 km
right ascension of ascending node: 213.0732°
argument of perigee: 162.2378°
revolutions per day: 14.32988823
mean anomaly at epoch: 260.1779°
orbit number at epoch: 86143

The dashed part of the orbit path shows where the satellite is in the earth's shadow,  

DLR